LER921 SVVG-SVMI

Flight info

Callsign LER921
Flight time N/A
Altitude 35000
Route VRA UW8 BRM UW40 PBL DCT ALDAK ALDAK1
Aircraft MD82/M-SDFGIRWY/C

Departure

Time 2026-04-21 20:00
Airport Juan Pablo Pérez Alfonso Airport (SVVG)

Arrival

Time N/A
Airport Maiquetía Simón Bolívar International Airport (SVMI)
Time Latitude Longitude Altitude Speed Heading
2026-04-21 19:31 8.62347 -71.66202 265 ft 0 kts 172°
2026-04-21 19:50 8.62356 -71.66203 267 ft 2 kts 172°
2026-04-21 19:50 8.62373 -71.66204 270 ft 2 kts 183°
2026-04-21 19:51 8.62389 -71.66201 274 ft 2 kts 208°
2026-04-21 19:51 8.62401 -71.66189 287 ft 2 kts 243°
2026-04-21 19:51 8.62406 -71.66174 290 ft 2 kts 257°
2026-04-21 19:51 8.62408 -71.66163 290 ft 1 kts 261°
2026-04-21 19:52 8.62409 -71.66157 290 ft 1 kts 262°
2026-04-21 19:52 8.62408 -71.66165 283 ft 1 kts 262°
2026-04-21 19:52 8.62407 -71.66174 288 ft 2 kts 262°
2026-04-21 19:53 8.62406 -71.66178 288 ft 0 kts 262°
2026-04-21 19:56 8.62406 -71.66181 288 ft 1 kts 262°
2026-04-21 19:56 8.62405 -71.66191 288 ft 2 kts 261°
2026-04-21 19:57 8.62402 -71.66207 288 ft 3 kts 260°
2026-04-21 19:57 8.62396 -71.66242 288 ft 7 kts 261°
2026-04-21 19:57 8.62391 -71.66300 290 ft 5 kts 284°
2026-04-21 19:57 8.62404 -71.66316 290 ft 3 kts 323°
2026-04-21 19:58 8.62431 -71.66325 289 ft 5 kts 350°
2026-04-21 19:58 8.62488 -71.66335 290 ft 12 kts 350°
2026-04-21 19:58 8.62535 -71.66355 294 ft 3 kts 304°
2026-04-21 19:58 8.62540 -71.66378 289 ft 4 kts 273°
2026-04-21 19:59 8.62539 -71.66384 284 ft 0 kts 260°
2026-04-21 19:59 8.62539 -71.66385 284 ft 0 kts 260°
2026-04-21 19:59 8.62532 -71.66427 273 ft 24 kts 260°
2026-04-21 19:59 8.62484 -71.66781 268 ft 82 kts 262°
2026-04-21 20:00 8.62378 -71.67570 266 ft 145 kts 261°
2026-04-21 20:00 8.62216 -71.68755 331 ft 189 kts 263°
2026-04-21 20:00 8.62020 -71.70027 1280 ft 174 kts 261°
2026-04-21 20:00 8.61782 -71.71220 2162 ft 175 kts 258°
2026-04-21 20:01 8.61506 -71.72438 2794 ft 176 kts 258°
2026-04-21 20:01 8.61286 -71.73629 3566 ft 172 kts 274°
2026-04-21 20:01 8.61757 -71.74701 4215 ft 168 kts 326°
2026-04-21 20:01 8.62833 -71.75085 4728 ft 173 kts 352°
2026-04-21 20:02 8.64046 -71.75304 5108 ft 181 kts 347°
2026-04-21 20:02 8.65306 -71.75632 5545 ft 194 kts 345°
2026-04-21 20:02 8.66689 -71.76048 5794 ft 220 kts 343°
2026-04-21 20:02 8.68253 -71.76590 5872 ft 256 kts 339°
2026-04-21 20:03 8.69994 -71.77318 5945 ft 285 kts 336°
2026-04-21 20:03 8.71782 -71.78181 5946 ft 285 kts 333°
2026-04-21 20:03 8.73511 -71.79100 5915 ft 276 kts 332°
2026-04-21 20:03 8.75192 -71.80048 5914 ft 276 kts 330°
2026-04-21 20:04 8.76832 -71.81011 5915 ft 274 kts 330°
2026-04-21 20:04 8.78471 -71.81996 5905 ft 274 kts 329°
2026-04-21 20:04 8.80108 -71.82993 5907 ft 274 kts 329°
2026-04-21 20:04 8.81780 -71.83922 5905 ft 274 kts 341°
2026-04-21 20:05 8.83658 -71.84099 5908 ft 274 kts 12°
2026-04-21 20:05 8.85375 -71.83294 5922 ft 276 kts 41°
2026-04-21 20:05 8.86496 -71.81757 5906 ft 278 kts 69°
2026-04-21 20:05 8.86771 -71.79815 5911 ft 279 kts 97°
2026-04-21 20:06 8.86117 -71.77994 5905 ft 281 kts 125°
2026-04-21 20:06 8.84712 -71.76615 5902 ft 282 kts 143°
2026-04-21 20:06 8.83113 -71.75469 5906 ft 284 kts 145°
2026-04-21 20:06 8.81485 -71.74337 5905 ft 282 kts 146°
2026-04-21 20:07 8.79870 -71.73241 5915 ft 282 kts 146°
2026-04-21 20:07 8.78207 -71.72137 5914 ft 283 kts 147°
2026-04-21 20:07 8.76569 -71.71061 5922 ft 283 kts 146°
2026-04-21 20:07 8.75139 -71.69740 5924 ft 281 kts 122°
2026-04-21 20:08 8.74477 -71.67890 5938 ft 280 kts 93°
2026-04-21 20:08 8.74756 -71.65991 5935 ft 279 kts 65°
2026-04-21 20:08 8.75676 -71.64243 5943 ft 280 kts 58°
2026-04-21 20:08 8.76664 -71.62561 5928 ft 282 kts 58°
2026-04-21 20:09 8.77566 -71.60779 5932 ft 279 kts 68°
2026-04-21 20:09 8.78248 -71.58957 6029 ft 282 kts 68°
2026-04-21 20:09 8.79012 -71.57107 6515 ft 286 kts 64°
2026-04-21 20:09 8.79883 -71.55307 7262 ft 282 kts 62°
2026-04-21 20:10 8.80820 -71.53556 7908 ft 283 kts 59°
2026-04-21 20:10 8.81810 -71.51820 8489 ft 286 kts 58°
2026-04-21 20:10 8.82844 -71.50093 9045 ft 289 kts 57°
2026-04-21 20:10 8.83922 -71.48353 9587 ft 292 kts 57°
2026-04-21 20:11 8.85024 -71.46608 10098 ft 297 kts 57°
2026-04-21 20:11 8.86168 -71.44817 10342 ft 309 kts 56°
2026-04-21 20:11 8.87367 -71.42948 10593 ft 321 kts 56°
2026-04-21 20:11 8.88582 -71.41055 10868 ft 330 kts 56°
2026-04-21 20:12 8.89834 -71.39100 11260 ft 334 kts 57°
2026-04-21 20:12 8.91102 -71.37117 11730 ft 335 kts 57°
2026-04-21 20:12 8.91956 -71.35780 12052 ft 336 kts 57°
2026-04-21 20:12 8.93636 -71.33140 12639 ft 338 kts 57°
2026-04-21 20:13 8.94919 -71.31119 13023 ft 341 kts 57°
2026-04-21 20:13 8.96213 -71.29081 13394 ft 344 kts 57°
2026-04-21 20:13 8.97507 -71.27040 13829 ft 346 kts 57°
2026-04-21 20:13 8.98799 -71.25001 14171 ft 348 kts 57°
2026-04-21 20:14 9.00105 -71.22940 14523 ft 349 kts 57°
2026-04-21 20:14 9.01420 -71.20864 14864 ft 351 kts 57°
2026-04-21 20:14 9.02743 -71.18777 15187 ft 353 kts 57°
2026-04-21 20:14 9.04071 -71.16679 15523 ft 355 kts 58°
2026-04-21 20:15 9.05405 -71.14573 15864 ft 356 kts 58°
2026-04-21 20:15 9.06744 -71.12458 16234 ft 357 kts 58°
2026-04-21 20:15 9.08089 -71.10334 16574 ft 358 kts 58°
2026-04-21 20:15 9.09435 -71.08206 16857 ft 361 kts 58°
2026-04-21 20:16 9.10789 -71.06065 17155 ft 363 kts 58°
2026-04-21 20:16 9.12156 -71.03907 17493 ft 364 kts 58°
2026-04-21 20:16 9.13512 -71.01766 17785 ft 366 kts 58°
2026-04-21 20:16 9.14888 -70.99590 18085 ft 368 kts 58°
2026-04-21 20:17 9.16275 -70.97392 18399 ft 368 kts 58°
2026-04-21 20:17 9.17661 -70.95191 18642 ft 370 kts 58°
2026-04-21 20:17 9.19043 -70.92999 18908 ft 371 kts 58°
2026-04-21 20:17 9.20425 -70.90809 19156 ft 372 kts 58°
2026-04-21 20:18 9.21364 -70.89322 19326 ft 373 kts 58°
2026-04-21 20:18 9.23232 -70.86367 19703 ft 373 kts 58°
2026-04-21 20:18 9.24622 -70.84163 19957 ft 375 kts 58°
2026-04-21 20:18 9.26025 -70.81941 20208 ft 376 kts 58°
2026-04-21 20:19 9.27441 -70.79698 20437 ft 377 kts 58°
2026-04-21 20:19 9.28860 -70.77450 20648 ft 378 kts 58°
2026-04-21 20:19 9.30283 -70.75189 20884 ft 379 kts 58°
2026-04-21 20:19 9.31681 -70.72974 21097 ft 380 kts 58°
2026-04-21 20:20 9.33109 -70.70714 21324 ft 381 kts 58°
2026-04-21 20:20 9.34545 -70.68439 21595 ft 382 kts 58°
2026-04-21 20:20 9.35970 -70.66179 21885 ft 382 kts 58°
2026-04-21 20:20 9.37405 -70.63902 22120 ft 384 kts 58°
2026-04-21 20:21 9.38843 -70.61621 22338 ft 385 kts 58°
2026-04-21 20:21 9.40235 -70.59413 22564 ft 386 kts 58°
2026-04-21 20:21 9.41685 -70.57114 22784 ft 387 kts 58°
2026-04-21 20:21 9.43077 -70.54809 23376 ft 377 kts 62°
2026-04-21 20:22 9.44287 -70.52539 24035 ft 363 kts 64°
2026-04-21 20:22 9.46494 -70.48133 25192 ft 337 kts 64°
2026-04-21 20:22 9.47528 -70.46058 25761 ft 322 kts 64°
2026-04-21 20:23 9.48189 -70.44737 26144 ft 312 kts 64°
2026-04-21 20:23 9.49150 -70.42831 26738 ft 295 kts 63°
2026-04-21 20:23 9.50067 -70.41022 27256 ft 280 kts 63°
2026-04-21 20:23 9.50925 -70.39338 27794 ft 262 kts 62°
2026-04-21 20:24 9.51746 -70.37734 28102 ft 255 kts 62°
2026-04-21 20:24 9.52574 -70.36123 28077 ft 258 kts 62°
2026-04-21 20:24 9.53422 -70.34481 27895 ft 271 kts 62°
2026-04-21 20:24 9.54328 -70.32731 27604 ft 287 kts 62°
2026-04-21 20:25 9.55255 -70.30939 27711 ft 286 kts 62°
2026-04-21 20:25 9.56141 -70.29220 28195 ft 270 kts 62°
2026-04-21 20:25 9.56986 -70.27573 28575 ft 258 kts 62°
2026-04-21 20:25 9.57817 -70.25952 28603 ft 259 kts 62°
2026-04-21 20:26 9.58665 -70.24309 28624 ft 261 kts 62°
2026-04-21 20:26 9.59494 -70.22695 28681 ft 261 kts 62°
2026-04-21 20:26 9.60329 -70.21072 28747 ft 260 kts 62°